GLOBALSTAR M084

Last updated on Sun Jun 21 2026 00:03:18 GMT+0000 (Coordinated Universal Time)

1 38040U 11080A 26170.98189589 -.00000098 00000+0 33465-4 0 9990 2 38040 52.0027 8.7741 0001101 90.0231 68.5285 12.62267589669113
UTC large
Height (km)
Speed (km/s)
/
Latitude / Longitude
Inclination (degrees)
Orbital Period (minutes)
Azimuth
Elevation
Range (km)
Doppler Factor

Next 0 passes for location: London (51.5072 / 0.1276)

No passes found over London.
GLOBALSTAR M084